STARLINK-11507, 62519

Orbit data source: Space-Track

STARLINK-11507, 62519 is a payload satellite owned by SpaceX/Seattle (US) in LEO that was launched on Wed, 08 Jan 2025 UTC via an FALCON 9 launch vehicle from the Air Force Eastern Test Range (AFETR). Payloads include a variety of satellites, spacecraft, and rockets equipped with specific instruments for various scientific and technological missions. These include communications satellites like Starlink; space stations such as the ISS; scientific satellites like the Hubble; Earth observation satellites from companies like Planet Labs, Umbra, and HawkEye 360; GPS; miniature CubeSats for education and research; and military/defense satellites.

Loading next visibility...
STARLINK-11507 details
Identifier
62519, 2025-004J
Orbit
LEO
Last TLE update1 day ago
Origin
Flag of USSpaceX/Seattle (US)
ManufacturerSpaceX/Seattle
MissionOperational spacecraft
Bus & MotorSTARLINK V2M, Unknown motor
Mass730 kg wet, ~700 kg dry
Launch date (UTC)
2025-01-08 (1 month ago)
Launch vehicle
FALCON 9
Launch site
Air Force Eastern Test Range (AFETR)
Object type
Payload
Rocket body
Debris
Shape & HBRUnknown
Radar Cross SectionLarge (>1 m²)

Expand to show TLE details & history

TLE from 1 day ago
0 STARLINK-11507
1 62519U 25004J   25035.10999327  .00002449  00000-0  16937-4 0  9998
2 62519  42.9978 314.0273 0001891 245.0651 115.0023 15.77858405  4518
Epoch: 2025-02-04T02:38Z
Definitive object data (Epoch: 2025-02-04T02:38:23.418Z)
Latitude-0.00001°
Longitude139.90973°
Altitude336.817 km
Speed7.708 km/s
True Right ascension20h 56m 06s
True Declination0° 00' 00"
Sunlit
Object was in daylight at TLE epoch
Visualization TLE readout
Latitude-28.12186°
Longitude-12.52718°
Altitude342.669 km
Speed7.704 km/s
Apparent Right ascension14h 25m 48s
Apparent Declination-69° 17' 24"
Sunlit
Object is in full shadow
Visualization observer readout
Local Sidereal Time08:57:54
Azimuth154.946° SSE
Elevation-34.218°
Doppler factor1
Orbital elements
Apogee altitude339.767 km
Perigee altitude337.227 km
Semi-major axis6,716.634 km
Eccentricity0.0001891
Inclination42.9978°
RAAN314.0273°
Arg. of periapsis245.0651°
True anomaly115.02194°
Mean anomaly115.0023°
Eccentric anomaly115.01212°
Mean motion3.9429 °/min
BSTAR0.000016937
Orbital period91.3 mins
Loading maneuver chart data...
Loading historical data...
Loading historical data...
Loading historical data...
Loading historical data...
Loading historical data...
Loading historical data...
Loading historical data...

STARLINK-11507 Visibility forecast

Observer location: undefined°, undefined

Span
Click to sort rows by Start time (UTC) header in descending order
Start Az.
Max El. time (UTC)
Max El. Az.
Max El.
End time (UTC)
End Az.
4 mins2025-02-05 21:23:39.484Z215.633° SW2025-02-05 21:25:39.484Z160.385° S28.944°2025-02-05 21:27:39.484Z92.625° ESE
4 mins2025-02-05 22:59:39.484Z274.749° WNW2025-02-05 23:01:39.484Z14.646° NNE38.356°2025-02-05 23:03:39.484Z65.944° ENE
4 mins2025-02-06 00:35:39.484Z300.329° NW2025-02-06 00:37:39.484Z31.739° NE33.498°2025-02-06 00:39:39.484Z78.753° E
4 mins2025-02-06 02:11:39.484Z275.32° WNW2025-02-06 02:12:39.484Z243.57° WSW38.7°2025-02-06 02:15:39.484Z122.136° SE
|